Torna al catalogo

STARLINK-36174

AttivoComunicazioniVLEO
NORAD 67166·PAYLOAD·🇺🇸 United States

Lanciato Dec 17, 2025 da Cape Canaveral Space Force Station

Loading…

Prossimi Passaggi (prossime 24 ore)

TLE

AggiornatoSource: CelesTrak SupGP

Epoca: Sep 14, 2026, 23:22 UTC

1 67166C 25303D   26257.97409722  .00007352  00000+0  26633-3 0  2577
2 67166  43.0030 321.5901 0001383 268.1175 158.4474 15.27571978    10

Traccia STARLINK-36174 in tempo reale con AllMySat

Download on the App Store